Regional Weather Roundup
Issued by NWS

Home | Current Version | Previous Version | Text Only | Print | Product List | Glossary On
Versions: 1 2 3 4 5 6 7 8 9 10 11 12 13 14 15 16 17 18 19 20 21 22 23 24 25 26 27 28 29 30 31 32 33 34 35 36 37 38 39 40 41 42 43 44 45 46 47 48 49 50
000
ASUS43 KFSD 231702
RWRSD

WEATHER ROUNDUP FOR SOUTH DAKOTA
NATIONAL WEATHER SERVICE SIOUX FALLS SD
1200 PM CDT WED APR 23 2014

NOTE: "FAIR" INDICATES FEW OR NO CLOUDS BELOW 12,000 FEET WITH NO
SIGNIFICANT WEATHER AND/OR OBSTRUCTIONS TO VISIBILITY.


SDZ001>005-009-010-012>017-231800-
NORTHWEST AND NORTH CENTRAL SOUTH DAKOTA

CITY           SKY/WX    TMP DP  RH WIND       PRES   REMARKS
BUFFALO          N/A     53  42  66 W28       29.47R
FAITH            N/A     54  40  59 SE23G32   29.47F
MOBRIDGE       CLOUDY    50  41  71 SE22G33   29.53S
$$

SDZ012>016-024>037-041>051-057-063-072>074-231800-
SOUTHWEST AND SOUTH CENTRAL SOUTH DAKOTA

CITY           SKY/WX    TMP DP  RH WIND       PRES   REMARKS
RAPID CTY ARPT CLOUDY    62  44  51 N8        29.52R
PIERRE         PTSUNNY   62  40  44 SE23G36   29.52R
CUSTER         CLOUDY    50  27  40 W16G37    29.59R
ELLSWORTH AFB  CLOUDY    59  46  63 E2        29.53R
PHILIP         LGT RAIN  59  49  69 VRB5      29.52R
PINE RIDGE     CLOUDY    63  31  30 W15G23    29.55F
WINNER         FAIR      70  41  34 S23G30    29.51F
$$

SDZ004>011-016>023-039-040-231800-
NORTHEAST SOUTH DAKOTA

CITY           SKY/WX    TMP DP  RH WIND       PRES   REMARKS
ABERDEEN       PTSUNNY   48  38  68 SE25G43   29.67F
WATERTOWN      CLOUDY    45  36  70 SE17G30   29.79S
SISSETON         N/A     42  40  92 SE23G32   29.83F
$$

SDZ017-020-022-023-036>040-048>070-231800-
SOUTHEAST SOUTH DAKOTA

CITY           SKY/WX    TMP DP  RH WIND       PRES   REMARKS
SIOUX FALLS    CLOUDY    53  36  52 SE26G40   29.75F
HURON          CLOUDY    59  36  42 SE24G44   29.64F
CHAMBERLAIN      N/A     65  41  41 S28G36    29.54F
MITCHELL       PTSUNNY   64  39  39 SE32G43   29.67F
YANKTON        PTSUNNY   61  39  44 SE36G45   29.68F
$$

ABBREVIATIONS USED IN REMARKS
   TC - TEMPERATURE IN CELSIUS
  WCI - WIND CHILL INDEX
   HX - HEAT INDEX
  VSB - VISIBILITY




USA.gov is the U.S. government's official web portal to all federal, state and local government web resources and services.